Location: Biltmore Gardens
(41.6070°N, 83.4666°W)
Time: 13:41:31
(UTC+00:00)

Resurs 01 Rocket - Pass Details

Date: 14 July 2020
Orbit: 634 x 644 km, 98.0° (Epoch: 05 August)

Event Time Altitude Azimuth Distance (km) Brightness Sun altitude
Exits shadow 03:08:50 - 210° (SSW) 2,404 4.4 -17.8°
Reaches altitude 10° 03:10:04 10° 220° (SW) 2,018 4.0 -17.9°
Maximum altitude 03:13:15 20° 267° (W) 1,493 3.9 -18.3°
Drops below altitude 10° 03:16:28 10° 313° (NW) 2,027 5.4 -18.6°
Sets 03:19:13 0° 331° (NNW) 2,940 6.7 -18.9°
